Simultaneous Nadir Overpasses (SNOs) Predictions

Prediction of SNOs between METOP-C and LANDSAT-8 Satellite Orbit:

Table of predicted SNOs for the next 14.0 days since TLE Epoch: 4/10/2019
Index Date (METOP-C) Time (METOP-C) Lat,Lon (METOP-C) SZA (METOP-C ) Date (LANDSAT-8) Time (LANDSAT-8) Lat,Lon (LANDSAT-8) SZA (LANDSAT-8 ) Distance(km) Time Diff (sec)
1 04/11/2019 23:15:26 -81.05, 49.12 105.56 04/11/2019 23:16:33 -81.04, 49.08 105.54 0.82 67
2 04/12/2019 00:06:06 81.07,-143.03 74.50 04/12/2019 00:05:58 81.07,-142.85 74.51 3.02 8
3 04/14/2019 18:49:50 -81.05, 115.58 106.55 04/14/2019 18:50:47 -81.05, 115.59 106.53 0.27 57
4 04/14/2019 19:40:29 81.08, -76.24 73.55 04/14/2019 19:40:12 81.07, -76.38 73.52 2.52 17
5 04/17/2019 14:24:13 -81.05,-177.96 107.53 04/17/2019 14:25:00 -81.05,-177.95 107.51 0.36 47
6 04/17/2019 15:14:52 81.08, -9.83 72.57 04/17/2019 15:14:25 81.07, -9.94 72.54 2.03 27
7 04/20/2019 09:58:37 -81.05,-111.50 108.48 04/20/2019 09:59:14 -81.05,-111.52 108.47 0.60 37
8 04/20/2019 10:49:15 81.09, 56.95 71.66 04/20/2019 10:48:38 81.09, 56.82 71.63 2.11 37
9 04/23/2019 05:33:00 -81.07, -44.67 109.35 04/23/2019 05:33:27 -81.07, -44.77 109.35 1.68 27




NCC Satellite Simultaneous Nadir Overpasses (SNOs) Prediction Service
